VE3KSR Weather Reports


Display with metric or nautical units.
time (UTC)temp
F
wind
direction
speed
MPH
gust
MPH
rain 1hr
in
rain 24hr
in
rain mn
in
humidity
%
barometer
mb
20140730005048 55 214 5.0 6.0 0.10 0.00 0.00 95 1015.3
20140730004549 55 253 1.0 5.0 0.10 0.00 0.00 95 1015.2
20140730004048 55 0 0.0 0.0 0.10 0.00 0.00 94 1015.4
20140730003551 55 0 0.0 0.0 0.10 0.00 0.00 94 1015.3
20140730003047 55 0 0.0 0.0 0.10 0.00 0.00 94 1015.1
20140730002547 55 0 0.0 0.0 0.10 0.00 0.00 94 1015.3
20140730002048 55 0 0.0 0.0 0.10 0.00 0.00 94 1015.3
20140730001548 55 0 0.0 0.0 0.10 0.00 0.00 93 1015.1
20140730001048 55 0 0.0 0.0 0.10 0.00 0.00 93 1015.1
20140730000547 55 0 0.0 0.0 0.10 0.00 0.00 93 1015.1
20140730000047 55 0 0.0 0.0 0.10 0.00 0.00 93 1015.1
20140729235550 55 0 0.0 0.0 0.10 0.00 0.00 93 1015.3
20140729235049 55 0 0.0 0.0 0.10 0.00 0.00 93 1015.3
20140729234549 55 245 4.0 5.0 0.10 0.00 0.00 93 1015.2
20140729234049 55 248 6.0 6.0 0.10 0.00 0.00 93 1015.4
20140729233718 55 260 6.0 8.0 0.10 0.00 0.00 92 1015.3
20140729233551 55 260 6.0 8.0 0.10 0.00 0.00 92 1015.3
20140729233047 54 255 7.0 8.0 0.10 0.00 0.00 92 1015.3
20140729232549 55 297 8.0 10.0 0.10 0.00 0.00 92 1015.4
20140729232049 55 269 8.0 11.0 0.10 0.00 0.00 92 1015.3
20140729231549 55 266 9.0 11.0 0.10 0.00 0.00 91 1015.2
20140729231048 55 300 10.0 11.0 0.10 0.00 0.00 91 1015.4
20140729230549 55 308 9.0 11.0 0.10 0.00 0.00 91 1015.3
20140729230048 55 300 8.0 11.0 0.10 0.00 0.00 91 1015.3
20140729225548 56 302 10.0 13.0 0.10 0.00 0.00 90 1015.3
20140729225050 57 291 13.0 18.0 0.10 0.00 0.00 87 1015.2
20140729224548 58 304 12.0 18.0 0.10 0.00 0.00 85 1015.3
20140729224048 58 297 10.0 13.0 0.10 0.00 0.00 82 1015.3
20140729223549 58 298 10.0 12.0 0.10 0.00 0.00 82 1015.2
20140729223048 58 298 9.0 11.0 0.10 0.00 0.00 83 1015.2
20140729222548 58 294 8.0 10.0 0.10 0.00 0.00 83 1015.1
20140729222050 58 294 8.0 10.0 0.10 0.00 0.00 83 1015.0
20140729221548 58 301 9.0 12.0 0.10 0.00 0.00 82 1015.0
20140729221048 58 308 10.0 12.0 0.10 0.00 0.00 82 1015.1
20140729220550 59 302 8.0 11.0 0.10 0.00 0.00 81 1015.0
20140729220050 59 270 8.0 10.0 0.10 0.00 0.00 81 1015.1
20140729215548 59 288 8.0 11.0 0.10 0.00 0.00 80 1015.0
20140729215048 59 293 8.0 11.0 0.10 0.00 0.00 81 1015.0
20140729214548 59 295 8.0 12.0 0.10 0.00 0.00 80 1015.0
20140729214049 59 300 8.0 10.0 0.10 0.00 0.00 80 1015.0
20140729213549 59 288 10.0 12.0 0.10 0.00 0.00 80 1015.0
20140729213049 59 305 9.0 12.0 0.10 0.00 0.00 80 1015.1
20140729212548 59 301 9.0 12.0 0.10 0.00 0.00 79 1015.0
20140729212049 59 295 10.0 13.0 0.10 0.00 0.00 78 1015.0
20140729211548 59 301 9.0 12.0 0.10 0.00 0.00 79 1015.1
20140729211048 59 307 10.0 14.0 0.10 0.00 0.00 79 1015.1
20140729210551 58 293 11.0 14.0 0.10 0.00 0.00 79 1015.1
20140729210048 58 311 10.0 14.0 0.10 0.00 0.00 79 1015.1
20140729205549 58 281 9.0 12.0 0.10 0.00 0.00 80 1014.8
20140729205048 58 278 9.0 12.0 0.10 0.00 0.00 80 1015.1
20140729204653 58 301 8.0 13.0 0.10 0.00 0.00 79 1015.0
20140729204548 58 301 8.0 13.0 0.10 0.00 0.00 79 1015.0
20140729204048 59 269 10.0 14.0 0.10 0.00 0.00 79 1015.1
20140729203549 60 298 14.0 19.0 0.10 0.00 0.00 77 1014.8
20140729203048 60 297 15.0 20.0 0.10 0.00 0.00 76 1015.0
20140729202549 60 276 12.0 17.0 0.10 0.00 0.00 77 1015.0
20140729202048 61 315 12.0 16.0 0.10 0.00 0.00 76 1015.0
20140729201548 61 295 13.0 16.0 0.10 0.00 0.00 77 1015.1
20140729201048 61 294 12.0 16.0 0.10 0.00 0.00 76 1015.1
20140729195548 62 294 8.0 11.0 0.10 0.00 0.00 79 1015.3
20140729195050 61 300 7.0 10.0 0.10 0.00 0.00 79 1015.2
20140729194548 61 300 12.0 15.0 0.10 0.00 0.00 79 1015.1
20140729194049 61 291 11.0 15.0 0.10 0.00 0.00 78 1015.1
20140729193552 61 307 11.0 15.0 0.10 0.00 0.00 78 1015.1
20140729193049 61 302 11.0 14.0 0.10 0.00 0.00 77 1015.2
20140729192548 61 294 11.0 16.0 0.10 0.00 0.00 78 1015.2
20140729192049 61 319 8.0 10.0 0.10 0.00 0.00 79 1015.3
20140729191549 61 300 12.0 16.0 0.10 0.00 0.00 78 1015.2
20140729191048 60 311 8.0 11.0 0.10 0.00 0.00 78 1015.3
20140729190550 60 302 10.0 13.0 0.10 0.00 0.00 77 1015.2
20140729190048 60 311 9.0 13.0 0.10 0.00 0.00 77 1015.3
20140729185548 61 305 13.0 18.0 0.10 0.00 0.00 76 1015.1
20140729185050 61 295 13.0 18.0 0.10 0.00 0.00 74 1015.2
20140729184548 61 283 14.0 18.0 0.10 0.00 0.00 75 1015.3
20140729184048 61 298 12.0 17.0 0.10 0.00 0.00 75 1015.3
20140729183548 61 304 10.0 12.0 0.10 0.00 0.00 77 1015.3
20140729183050 61 359 8.0 10.0 0.10 0.00 0.00 78 1015.3
20140729182548 61 283 11.0 17.0 0.10 0.00 0.00 79 1015.3
20140729182050 61 300 12.0 16.0 0.10 0.00 0.00 78 1015.3
20140729181548 61 304 10.0 14.0 0.10 0.00 0.00 78 1015.3
20140729181048 62 288 10.0 14.0 0.10 0.00 0.00 78 1015.3
20140729180548 62 305 11.0 14.0 0.10 0.00 0.00 77 1015.3
20140729180049 62 294 11.0 15.0 0.10 0.00 0.00 78 1015.3
20140729175548 61 294 12.0 17.0 0.10 0.00 0.00 81 1015.3
20140729175053 61 294 11.0 16.0 0.10 0.00 0.00 81 1015.3
20140729174549 61 298 12.0 16.0 0.10 0.00 0.00 81 1015.3
20140729174049 61 312 10.0 14.0 0.10 0.00 0.00 82 1015.5
20140729173549 61 284 11.0 17.0 0.10 0.00 0.00 80 1015.4
20140729172548 61 316 10.0 14.0 0.10 0.00 0.00 78 1015.4
20140729172049 61 311 11.0 14.0 0.10 0.00 0.00 77 1015.5
20140729171549 61 295 13.0 17.0 0.10 0.00 0.00 76 1015.5
20140729171048 62 300 12.0 15.0 0.10 0.00 0.00 76 1015.4
20140729170549 62 298 9.0 12.0 0.10 0.00 0.00 76 1015.5
20140729170052 61 287 13.0 20.0 0.10 0.00 0.00 74 1015.6
20140729165549 62 290 11.0 14.0 0.10 0.00 0.00 77 1015.5
20140729164548 61 307 10.0 14.0 0.10 0.00 0.00 78 1015.6
20140729163554 61 287 10.0 15.0 0.10 0.00 0.00 77 1015.7
20140729163048 61 284 10.0 14.0 0.10 0.00 0.00 77 1015.7
20140729161548 61 318 11.0 16.0 0.10 0.00 0.00 76 1015.6
20140729161049 61 274 11.0 15.0 0.10 0.00 0.00 75 1015.7
20140729160048 60 298 8.0 10.0 0.10 0.00 0.00 74 1015.6
20140729155551 60 294 11.0 15.0 0.10 0.00 0.00 75 1015.7
20140729155049 60 298 6.0 8.0 0.10 0.00 0.00 76 1015.6
20140729154551 60 311 9.0 12.0 0.10 0.00 0.00 76 1015.6
20140729154049 60 291 9.0 13.0 0.10 0.00 0.00 76 1015.6
20140729153049 60 298 9.0 11.0 0.10 0.00 0.00 77 1015.7
20140729152549 60 302 8.0 11.0 0.10 0.00 0.00 77 1015.6
20140729152052 60 294 8.0 11.0 0.10 0.00 0.00 79 1015.6
20140729151549 60 291 8.0 11.0 0.10 0.00 0.00 79 1015.5
20140729151050 60 309 8.0 12.0 0.10 0.00 0.00 77 1015.6
20140729150550 60 294 9.0 11.0 0.10 0.00 0.00 76 1015.6
20140729150049 60 294 8.0 12.0 0.10 0.00 0.00 77 1015.6
20140729145549 59 291 10.0 12.0 0.10 0.00 0.00 77 1015.5
20140729145052 59 308 10.0 13.0 0.10 0.00 0.00 78 1015.4
20140729144549 59 308 10.0 13.0 0.10 0.00 0.00 78 1015.4
20140729144051 59 301 9.0 12.0 0.10 0.00 0.00 81 1015.6
20140729143550 59 325 6.0 9.0 0.10 0.00 0.00 83 1015.4
20140729143049 59 315 6.0 8.0 0.10 0.00 0.00 82 1015.4
20140729142549 58 295 7.0 9.0 0.10 0.00 0.00 83 1015.4
20140729142051 58 308 7.0 10.0 0.10 0.00 0.00 84 1015.4
20140729141550 58 304 7.0 9.0 0.10 0.00 0.00 87 1015.5
20140729141049 57 290 5.0 8.0 0.10 0.00 0.00 89 1015.5
20140729140051 57 321 7.0 9.0 0.10 0.00 0.00 90 1015.4
20140729135549 57 298 7.0 9.0 0.10 0.00 0.00 91 1015.4
20140729134549 56 287 6.0 8.0 0.10 0.00 0.00 93 1015.2
20140729134049 56 321 7.0 8.0 0.10 0.00 0.00 93 1015.3
20140729133552 57 307 5.0 7.0 0.10 0.00 0.00 93 1015.2
20140729133049 55 332 7.0 10.0 0.10 0.00 0.00 94 1015.1
20140729132550 55 346 8.0 10.0 0.10 0.00 0.00 94 1015.0
20140729132049 55 312 6.0 9.0 0.10 0.00 0.00 95 1015.1
20140729131549 55 342 6.0 9.0 0.10 0.00 0.00 95 1014.8
20140729131049 54 349 6.0 8.0 0.10 0.00 0.00 95 1014.8
20140729130552 54 330 6.0 9.0 0.10 0.00 0.00 96 1014.8
20140729130055 54 342 6.0 7.0 0.10 0.00 0.00 96 1014.7
20140729125552 54 332 5.0 7.0 0.10 0.00 0.00 96 1014.7
20140729125050 53 343 7.0 9.0 0.10 0.00 0.00 96 1014.7
20140729124639 53 315 6.0 8.0 0.10 0.00 0.00 96 1014.5
20140729124549 53 315 6.0 8.0 0.10 0.00 0.00 96 1014.5
20140729123049 52 359 7.0 10.0 0.10 0.00 0.00 97 1014.2
20140729122055 52 321 7.0 9.0 0.10 0.00 0.00 97 1014.4
20140729121551 52 4 8.0 11.0 0.10 0.00 0.00 97 1014.5
20140729121051 52 352 9.0 12.0 0.10 0.00 0.00 97 1014.5
20140729120550 52 328 9.0 12.0 0.10 0.00 0.00 97 1014.7
20140729120049 52 342 8.0 11.0 0.10 0.00 0.00 98 1014.6
20140729115554 52 343 0.0 13.0 0.10 0.00 0.00 97 1014.8
20140729115550 52 343 10.0 13.0 0.10 0.00 0.00 97 1014.8
20140729115051 51 339 9.0 11.0 0.10 0.00 0.00 97 1014.6
20140729114549 51 8 8.0 11.0 0.10 0.00 0.00 98 1014.6
20140729114052 51 354 9.0 12.0 0.10 0.00 0.00 97 1014.4
20140729113549 51 330 10.0 13.0 0.10 0.00 0.00 98 1014.3
20140729113049 51 349 9.0 12.0 0.10 0.00 0.00 98 1014.2
20140729112550 51 329 9.0 11.0 0.10 0.00 0.00 98 1014.2
20140729112050 51 350 9.0 12.0 0.10 0.00 0.00 98 1014.3
20140729111549 51 333 10.0 12.0 0.10 0.00 0.00 98 1014.0
20140729111049 51 350 9.0 11.0 0.10 0.00 0.00 98 1014.0
20140729110549 51 352 9.0 12.0 0.10 0.00 0.00 98 1013.9
20140729110049 50 1 9.0 11.0 0.10 0.00 0.00 98 1013.8
20140729105833 50 353 10.0 12.0 0.10 0.00 0.00 98 1013.9
20140729105549 50 353 10.0 12.0 0.10 0.00 0.00 98 1013.9
20140729105051 50 8 10.0 12.0 0.10 0.00 0.00 98 1013.8
20140729104549 50 3 8.0 11.0 0.10 0.00 0.00 98 1014.0
20140729104051 50 1 8.0 11.0 0.10 0.00 0.00 98 1014.0
20140729103553 49 357 9.0 11.0 0.10 0.00 0.00 98 1014.2
20140729103049 49 336 9.0 10.0 0.10 0.00 0.00 98 1014.3
20140729102549 49 340 8.0 10.0 0.10 0.00 0.00 98 1014.3
20140729102050 49 0 8.0 11.0 0.10 0.00 0.00 98 1014.3
20140729101550 49 1 8.0 11.0 0.10 0.00 0.00 98 1014.3
20140729101050 49 338 9.0 11.0 0.10 0.00 0.00 98 1014.2
20140729100549 49 349 10.0 12.0 0.10 0.00 0.00 99 1014.0
20140729100049 49 347 10.0 12.0 0.10 0.00 0.00 99 1013.9
20140729095549 49 339 9.0 12.0 0.10 0.00 0.00 99 1013.7
20140729095049 49 346 10.0 12.0 0.10 0.00 0.00 99 1013.7
20140729094550 48 4 10.0 12.0 0.10 0.00 0.00 99 1013.6
20140729094050 48 0 9.0 12.0 0.10 0.00 0.00 99 1013.6
20140729093549 48 350 9.0 11.0 0.10 0.00 0.00 99 1013.4
20140729093049 48 4 10.0 14.0 0.10 0.00 0.00 99 1013.5
20140729092549 48 1 10.0 12.0 0.10 0.00 0.00 99 1013.5
20140729092050 47 1 10.0 13.0 0.10 0.00 0.00 99 1013.5
20140729091549 47 3 11.0 13.0 0.10 0.00 0.00 99 1013.4
20140729091052 47 350 10.0 13.0 0.10 0.00 0.00 99 1013.5
20140729090550 47 10 10.0 13.0 0.10 0.00 0.00 99 1013.5
20140729090050 47 352 11.0 14.0 0.10 0.00 0.00 99 1013.7
20140729085550 47 352 12.0 15.0 0.10 0.00 0.00 99 1013.7
20140729085051 45 3 12.0 13.0 0.10 0.00 0.00 99 1013.8
20140729084553 47 1 11.0 14.0 0.10 0.00 0.00 99 1013.9
20140729084051 45 3 11.0 15.0 0.10 0.00 0.00 99 1013.8
20140729083555 47 342 11.0 14.0 0.10 0.00 0.00 99 1013.8
20140729083053 47 10 11.0 14.0 0.10 0.00 0.00 99 1013.6
20140729082550 47 13 11.0 13.0 0.10 0.00 0.00 99 1013.6
20140729082049 47 343 11.0 13.0 0.10 0.00 0.00 99 1013.4
20140729081551 47 4 10.0 13.0 0.10 0.00 0.00 99 1013.4
20140729081053 47 345 10.0 13.0 0.10 0.00 0.00 99 1013.4
20140729080550 47 10 11.0 13.0 0.10 0.00 0.00 99 1013.3
20140729080158 47 352 12.0 14.0 0.10 0.00 0.00 99 1013.3
20140729080050 47 352 12.0 14.0 0.10 0.00 0.00 99 1013.3
20140729075553 47 349 10.0 12.0 0.10 0.00 0.00 99 1013.3
20140729074550 47 1 11.0 14.0 0.10 0.00 0.00 99 1013.3
20140729074050 47 18 11.0 15.0 0.10 0.00 0.00 99 1013.4
20140729073550 47 340 10.0 13.0 0.10 0.00 0.00 99 1013.4
20140729073053 47 343 11.0 13.0 0.10 0.00 0.00 99 1013.4
20140729072600 47 352 10.0 12.0 0.10 0.00 0.00 99 1013.7
20140729072051 47 350 10.0 13.0 0.10 0.00 0.00 99 1013.7
20140729071550 47 345 11.0 15.0 0.10 0.00 0.00 99 1013.8
20140729071054 47 326 11.0 15.0 0.10 0.00 0.00 99 1014.0
20140729070550 47 352 11.0 13.0 0.10 0.00 0.00 99 1014.1
20140729070051 47 350 11.0 13.0 0.10 0.00 0.00 98 1014.2
20140729065550 47 356 10.0 13.0 0.10 0.00 0.00 99 1014.0
20140729065050 47 340 11.0 13.0 0.10 0.00 0.00 98 1014.1
20140729064550 47 338 11.0 13.0 0.10 0.00 0.00 98 1014.1
20140729064050 47 347 11.0 14.0 0.10 0.00 0.00 98 1014.1
20140729063553 47 343 10.0 13.0 0.10 0.00 0.00 98 1013.8
20140729063053 47 359 10.0 14.0 0.10 0.00 0.00 98 1013.9
20140729062556 47 6 10.0 14.0 0.10 0.00 0.00 98 1013.8
20140729062050 47 342 10.0 13.0 0.10 0.00 0.00 98 1013.9
20140729061553 47 352 10.0 13.0 0.10 0.00 0.00 98 1013.7
20140729061050 47 343 10.0 13.0 0.10 0.00 0.00 98 1013.8
20140729060551 47 349 9.0 13.0 0.10 0.00 0.00 98 1013.7
20140729060053 47 346 11.0 14.0 0.10 0.00 0.00 98 1013.6
20140729055551 48 356 10.0 12.0 0.10 0.00 0.00 98 1013.5
20140729055050 47 343 10.0 14.0 0.10 0.00 0.00 98 1013.5
20140729054553 47 356 10.0 13.0 0.10 0.00 0.00 98 1013.6
20140729054052 47 345 10.0 13.0 0.10 0.00 0.00 98 1013.6
20140729053550 47 23 11.0 15.0 0.10 0.00 0.00 98 1013.5
20140729053053 47 349 10.0 14.0 0.10 0.00 0.00 98 1013.5
20140729052554 47 345 12.0 14.0 0.10 0.00 0.00 98 1013.6
20140729052054 47 326 12.0 15.0 0.10 0.00 0.00 98 1013.7
20140729051551 47 318 10.0 13.0 0.10 0.00 0.00 98 1013.9
20140729051050 48 342 11.0 13.0 0.10 0.00 0.00 98 1014.2
20140729050551 48 330 10.0 13.0 0.10 0.00 0.00 98 1014.1
20140729050050 48 338 10.0 13.0 0.10 0.00 0.00 98 1014.4
20140729045550 48 346 9.0 14.0 0.10 0.00 0.00 98 1014.3
20140729045050 48 353 10.0 13.0 0.10 0.00 0.00 98 1014.2
20140729044552 48 336 9.0 11.0 0.10 0.00 0.00 98 1014.4
20140729044051 48 307 10.0 14.0 0.10 0.00 0.00 98 1014.2
20140729043554 48 326 11.0 13.0 0.10 0.00 0.00 98 1014.3
20140729043055 48 346 9.0 12.0 0.10 0.00 0.00 98 1014.4
20140729042550 48 338 9.0 12.0 0.10 0.00 0.00 97 1014.4
20140729042050 48 343 10.0 14.0 0.10 0.00 0.00 97 1014.4
20140729041052 48 340 10.0 13.0 0.10 0.00 0.00 97 1014.2
20140729040550 48 338 10.0 13.0 0.10 0.00 0.00 97 1014.4
20140729040054 48 0 10.0 13.0 0.10 0.00 0.00 97 1014.4
20140729035551 48 345 10.0 14.0 0.10 0.00 0.00 97 1014.3
20140729035051 48 338 10.0 13.0 0.10 0.00 0.00 97 1014.3
20140729034550 48 336 10.0 14.0 0.10 0.00 0.00 97 1014.3
20140729033550 48 357 10.0 14.0 0.10 0.00 0.00 97 1014.4
20140729033050 48 350 10.0 15.0 0.10 0.00 0.00 96 1014.2
20140729032550 48 323 9.0 13.0 0.10 0.00 0.00 97 1014.3
20140729031550 48 339 10.0 13.0 0.10 0.00 0.00 96 1014.4
20140729031440 48 338 9.0 13.0 0.10 0.00 0.00 96 1014.3
20140729031141 48 338 9.0 13.0 0.10 0.00 0.00 96 1014.3
20140729031055 48 338 9.0 13.0 0.10 0.00 0.00 96 1014.3
20140729030815 48 333 9.0 14.0 0.10 0.00 0.00 96 1014.3
20140729030646 48 333 9.0 14.0 0.10 0.00 0.00 96 1014.3
20140729030552 48 333 9.0 14.0 0.10 0.00 0.00 96 1014.3
20140729030132 49 329 9.0 14.0 0.10 0.00 0.00 96 1014.3
20140729030050 49 329 9.0 14.0 0.10 0.00 0.00 96 1014.3
20140729025851 49 340 10.0 15.0 0.10 0.00 0.00 96 1014.3
20140729025646 49 340 10.0 15.0 0.10 0.00 0.00 96 1014.3
20140729025552 49 340 10.0 15.0 0.10 0.00 0.00 96 1014.3
20140729025426 49 347 10.0 14.0 0.10 0.00 0.00 96 1014.3
20140729025142 49 347 10.0 14.0 0.10 0.00 0.00 96 1014.3
20140729025052 49 347 10.0 14.0 0.10 0.00 0.00 96 1014.3
20140729024550 48 350 10.0 14.0 0.10 0.00 0.00 96 1014.1
20140729024053 49 325 10.0 14.0 0.10 0.00 0.00 96 1014.4
20140729023554 49 346 11.0 15.0 0.10 0.00 0.00 95 1014.3
20140729023050 49 330 11.0 15.0 0.10 0.00 0.00 96 1014.3
20140729022550 49 340 12.0 15.0 0.10 0.00 0.00 95 1014.1
20140729022052 49 340 13.0 16.0 0.10 0.00 0.00 95 1014.2
20140729021815 49 325 12.0 17.0 0.10 0.00 0.00 95 1014.0
20140729021551 49 325 12.0 17.0 0.10 0.00 0.00 95 1014.0
20140729021051 49 13 14.0 20.0 0.10 0.00 0.00 95 1014.1
20140729020818 49 31 13.0 17.0 0.10 0.00 0.00 95 1014.0
20140729020551 49 31 13.0 17.0 0.10 0.00 0.00 95 1014.0
20140729020438 49 319 13.0 17.0 0.10 0.00 0.00 94 1013.9
20140729020147 49 319 13.0 17.0 0.10 0.00 0.00 94 1013.9
20140729020051 49 319 13.0 17.0 0.10 0.00 0.00 94 1013.9
20140729015552 49 328 14.0 19.0 0.10 0.00 0.00 94 1013.9
20140729014550 50 326 13.0 17.0 0.10 0.00 0.00 94 1013.9
20140729014051 50 349 12.0 17.0 0.10 0.00 0.00 93 1013.8
20140729013825 50 346 16.0 21.0 0.10 0.00 0.00 93 1013.8
20140729013550 50 346 16.0 21.0 0.10 0.00 0.00 93 1013.8
20140729013050 50 350 16.0 23.0 0.10 0.00 0.00 93 1013.9
20140729012550 50 345 16.0 23.0 0.10 0.00 0.00 93 1013.6
20140729012051 50 330 16.0 21.0 0.10 0.00 0.00 93 1013.6
20140729011550 50 339 15.0 21.0 0.10 0.00 0.00 93 1013.4
20140729011051 50 359 14.0 20.0 0.10 0.00 0.00 93 1013.6
20140729010051 51 354 13.0 17.0 0.10 0.00 0.00 93 1013.5
20140729005842 51 353 15.0 21.0 0.10 0.00 0.00 93 1013.4
20140729005550 51 353 15.0 21.0 0.10 0.00 0.00 93 1013.4